This is the latest recevied weather packets stored in our database for station/object WX5RP. If no packets are shown the sender has not sent any weather packets the latest 10 day(s).
| Time | Temp. | Humidity | Pressure | Rain* | Wind** | Luminosity | Snow |
|---|---|---|---|---|---|---|---|
| 1777783516 | 14.44° C | 49% | 1016.2 hPa | 0 mm | - | 0 W/m² | - |
| 1777782916 | 14.44° C | 50% | 1015.9 hPa | 0 mm | - | 0 W/m² | - |
| 1777782316 | 14.44° C | 50% | 1015.5 hPa | 0 mm | - | 0 W/m² | - |
| 1777781716 | 15° C | 49% | 1015.5 hPa | 0 mm | - | 0 W/m² | - |
| 1777781116 | 14.44° C | 49% | 1015.9 hPa | 0 mm | - | 0 W/m² | - |
| 1777780516 | 15° C | 47% | 1015.5 hPa | 0 mm | - | 0 W/m² | - |
| 1777779916 | 15.56° C | 45% | 1015.2 hPa | 0 mm | - | 0 W/m² | - |
| 1777779316 | 16.11° C | 44% | 1014.8 hPa | 0 mm | - | 0 W/m² | - |
| 1777778715 | 16.11° C | 42% | 1014.1 hPa | 0 mm | - | 0 W/m² | - |
| 1777778116 | 15.56° C | 45% | 1013.8 hPa | 0 mm | - | 0 W/m² | - |
| 1777777515 | 15° C | 51% | 1014.7 hPa | 0 mm | - | 0 W/m² | - |
| 1777776916 | 15.56° C | 46% | 1013.4 hPa | 0 mm | - | 4 W/m² | - |
| 1777776316 | 17.22° C | 44% | 1013.4 hPa | 0 mm | - | 11 W/m² | - |
| 1777775717 | 17.22° C | 43% | 1013.2 hPa | 0 mm | - | 17 W/m² | - |
| 1777775115 | 17.22° C | 38% | 1012.8 hPa | 0 mm | - | 24 W/m² | - |
| 1777774515 | 17.78° C | 40% | 1012.9 hPa | 0 mm | - | 28 W/m² | - |
| 1777773915 | 17.22° C | 40% | 1014 hPa | 0 mm | - | 41 W/m² | - |
| 1777773315 | 17.78° C | 43% | 1014 hPa | 0 mm | - | 53 W/m² | - |
| 1777772715 | 17.78° C | 41% | 1014 hPa | 0 mm | - | 58 W/m² | - |
| 1777772115 | 18.33° C | 41% | 1013.6 hPa | 0 mm | - | 53 W/m² | - |
| 1777771515 | 18.33° C | 43% | 1013.7 hPa | 0 mm | - | 66 W/m² | - |
| 1777770917 | 18.33° C | 46% | 1013.5 hPa | 0 mm | - | 129 W/m² | - |
| 1777770318 | 18.33° C | 43% | 1014 hPa | 0 mm | - | 193 W/m² | - |
| 1777769717 | 18.89° C | 42% | 1014.2 hPa | 0 mm | - | 130 W/m² | - |
| 1777769117 | 18.33° C | 42% | 1014.2 hPa | 0 mm | - | 187 W/m² | - |
* Rain latest hour (hover to see other rain measurements)
** Current wind speed in m/s (hover to see current wind gust speed)